Location: Boullarre
(49.1305°N, 3.0047°E)
Time: 21:44:07
(UTC+00:00)

Cosmos 1140 Rocket - Pass Details

Date: 03 February 2023
Orbit: 744 x 766 km, 74.1° (Epoch: 28 March)

Event Time Altitude Azimuth Distance (km) Brightness Sun altitude
Rises 17:22:01 0° 200° (SSW) 3,198 7.3 -6.1°
Reaches altitude 10° 17:24:23 10° 200° (SSW) 2,274 6.5 -6.4°
Maximum altitude 17:29:32 87° 114° (ESE) 759 3.5 -7.2°
Drops below altitude 10° 17:34:43 10° 24° (NNE) 2,276 5.6 -8.1°
Sets 17:37:04 0° 24° (NNE) 3,202 6.3 -8.4°
